Location: Firdgum
(53.2488°N, 5.5615°E)
Time: 17:08:08
(UTC+00:00)

CZ-2C R/B - Pass Details

Date: 08 December 2019
Orbit: 668 x 784 km, 98.1° (Epoch: 28 January)

Event Time Altitude Azimuth Distance (km) Brightness Sun altitude
Rises 04:14:54 0° 15° (NNE) 3,064 5.8 -29.0°
Reaches altitude 10° 04:17:10 10° 15° (NNE) 2,132 4.9 -28.7°
Enters shadow 04:19:07 25° 17° (NNE) 1,366 3.9 -28.4°
